WZZ106 LFPG-EKCH

Flight info

Callsign WZZ106
Flight time 1h 25m
Altitude 28000
Route NURMO N874 CMB DCT VEKIN N873 JUIST DCT AMRAK P999 ALS T153 TUDLO
Aircraft B738/M-V/N

Departure

Time 2026-04-25 13:32
Airport Charles de Gaulle International Airport (LFPG)

Arrival

Time 2026-04-25 14:58
Airport Copenhagen Kastrup Airport (EKCH)
Time Latitude Longitude Altitude Speed Heading
2026-04-25 13:05 49.00115 2.57516 400 ft 0 kts 355°
2026-04-25 13:13 49.00116 2.57516 400 ft 0 kts 355°
2026-04-25 13:16 49.00116 2.57515 400 ft 0 kts 355°
2026-04-25 13:17 49.00117 2.57515 400 ft 0 kts 355°
2026-04-25 13:20 49.00107 2.57517 400 ft 2 kts 354°
2026-04-25 13:20 49.00091 2.57520 400 ft 2 kts 351°
2026-04-25 13:21 49.00075 2.57524 400 ft 2 kts 349°
2026-04-25 13:21 49.00059 2.57528 400 ft 2 kts 356°
2026-04-25 13:21 49.00044 2.57525 400 ft 2 kts 70°
2026-04-25 13:21 49.00043 2.57517 400 ft 0 kts 92°
2026-04-25 13:23 49.00043 2.57518 400 ft 0 kts 92°
2026-04-25 13:24 49.00041 2.57569 400 ft 10 kts 92°
2026-04-25 13:24 49.00045 2.57680 400 ft 10 kts 86°
2026-04-25 13:24 49.00006 2.57749 400 ft 10 kts 173°
2026-04-25 13:25 48.99968 2.57683 400 ft 9 kts 263°
2026-04-25 13:25 48.99961 2.57568 400 ft 12 kts 265°
2026-04-25 13:25 48.99954 2.57447 400 ft 11 kts 265°
2026-04-25 13:25 48.99947 2.57330 400 ft 11 kts 265°
2026-04-25 13:26 48.99943 2.57218 400 ft 10 kts 264°
2026-04-25 13:26 48.99936 2.57112 400 ft 10 kts 264°
2026-04-25 13:26 48.99929 2.57009 400 ft 10 kts 265°
2026-04-25 13:26 48.99925 2.56907 400 ft 11 kts 267°
2026-04-25 13:27 48.99921 2.56750 400 ft 18 kts 267°
2026-04-25 13:27 48.99911 2.56569 400 ft 16 kts 266°
2026-04-25 13:27 48.99903 2.56408 400 ft 15 kts 266°
2026-04-25 13:27 48.99897 2.56256 400 ft 14 kts 266°
2026-04-25 13:28 48.99890 2.56114 400 ft 13 kts 266°
2026-04-25 13:28 48.99895 2.56028 400 ft 12 kts 289°
2026-04-25 13:28 48.99888 2.55897 400 ft 10 kts 214°
2026-04-25 13:28 48.99825 2.55863 400 ft 9 kts 190°
2026-04-25 13:29 48.99761 2.55857 400 ft 9 kts 177°
2026-04-25 13:29 48.99699 2.55863 400 ft 9 kts 176°
2026-04-25 13:29 48.99674 2.55866 400 ft 0 kts 176°
2026-04-25 13:31 48.99627 2.55871 400 ft 11 kts 174°
2026-04-25 13:31 48.99595 2.55969 400 ft 15 kts 86°
2026-04-25 13:32 48.99611 2.56270 400 ft 57 kts 82°
2026-04-25 13:32 48.99667 2.57230 400 ft 123 kts 86°
2026-04-25 13:32 48.99753 2.58834 525 ft 167 kts 84°
2026-04-25 13:32 48.99826 2.60605 1214 ft 172 kts 86°
2026-04-25 13:33 48.99873 2.62527 1804 ft 189 kts 84°
2026-04-25 13:33 49.00001 2.64545 2433 ft 191 kts 83°
2026-04-25 13:33 49.00125 2.66483 3341 ft 177 kts 83°
2026-04-25 13:33 49.00205 2.67727 3839 ft 176 kts 83°
2026-04-25 13:34 49.00372 2.70383 4304 ft 203 kts 84°
2026-04-25 13:34 49.00492 2.72626 4564 ft 228 kts 84°
2026-04-25 13:34 49.00623 2.75159 4951 ft 249 kts 85°
2026-04-25 13:34 49.00763 2.77894 5540 ft 263 kts 85°
2026-04-25 13:35 49.00905 2.80687 6193 ft 272 kts 85°
2026-04-25 13:35 49.01106 2.83620 6964 ft 277 kts 77°
2026-04-25 13:35 49.01893 2.86295 7718 ft 280 kts 53°
2026-04-25 13:35 49.03344 2.88274 8469 ft 283 kts 29°
2026-04-25 13:36 49.05204 2.89214 9220 ft 285 kts
2026-04-25 13:36 49.07165 2.89277 9988 ft 287 kts 354°
2026-04-25 13:36 49.09180 2.88925 10755 ft 290 kts 353°
2026-04-25 13:36 49.11208 2.88563 11360 ft 299 kts 352°
2026-04-25 13:37 49.13331 2.88176 11764 ft 315 kts 352°
2026-04-25 13:37 49.15532 2.87776 12083 ft 332 kts 352°
2026-04-25 13:37 49.17921 2.87342 12343 ft 350 kts 352°
2026-04-25 13:37 49.20400 2.86891 12584 ft 368 kts 352°
2026-04-25 13:38 49.23001 2.86418 12805 ft 384 kts 352°
2026-04-25 13:38 49.25707 2.85926 13131 ft 396 kts 352°
2026-04-25 13:38 49.28460 2.85424 13700 ft 401 kts 352°
2026-04-25 13:38 49.31244 2.84917 14289 ft 404 kts 352°
2026-04-25 13:39 49.34051 2.84406 14872 ft 407 kts 352°
2026-04-25 13:39 49.36875 2.83889 15450 ft 410 kts 352°
2026-04-25 13:39 49.39724 2.83369 16026 ft 414 kts 351°
2026-04-25 13:39 49.42594 2.82853 16563 ft 417 kts 351°
2026-04-25 13:40 49.45485 2.82329 17084 ft 420 kts 351°
2026-04-25 13:40 49.48392 2.81800 17589 ft 423 kts 351°
2026-04-25 13:40 49.51324 2.81268 18086 ft 426 kts 351°
2026-04-25 13:40 49.54276 2.80732 18575 ft 428 kts 351°
2026-04-25 13:41 49.57240 2.80190 19030 ft 431 kts 351°
2026-04-25 13:41 49.60228 2.79641 19145 ft 434 kts 351°
2026-04-25 13:41 49.63232 2.79087 19182 ft 433 kts 351°
2026-04-25 13:41 49.66174 2.78544 19188 ft 432 kts 351°
2026-04-25 13:42 49.69206 2.77983 19194 ft 432 kts 351°
2026-04-25 13:42 49.72154 2.77437 19198 ft 432 kts 351°
2026-04-25 13:42 49.75139 2.76884 19206 ft 433 kts 351°
2026-04-25 13:42 49.78154 2.76350 19529 ft 438 kts 353°
2026-04-25 13:43 49.81203 2.76498 20065 ft 442 kts
2026-04-25 13:43 49.84229 2.77721 20527 ft 448 kts 18°
2026-04-25 13:43 49.87067 2.79772 20947 ft 453 kts 26°
2026-04-25 13:43 49.89749 2.82278 21361 ft 457 kts 30°
2026-04-25 13:44 49.92379 2.85068 21756 ft 460 kts 33°
2026-04-25 13:44 49.95076 2.87867 22153 ft 460 kts 29°
2026-04-25 13:44 49.97781 2.90429 22514 ft 463 kts 29°
2026-04-25 13:44 50.00549 2.93136 22866 ft 465 kts 30°
2026-04-25 13:45 50.03291 2.95812 23235 ft 467 kts 30°
2026-04-25 13:45 50.06020 2.98501 23579 ft 468 kts 30°
2026-04-25 13:45 50.08814 3.01269 23911 ft 470 kts 30°
2026-04-25 13:45 50.11560 3.03997 24220 ft 472 kts 30°
2026-04-25 13:46 50.14334 3.06758 24504 ft 475 kts 30°
2026-04-25 13:46 50.17106 3.09520 24787 ft 477 kts 30°
2026-04-25 13:46 50.19926 3.12330 25076 ft 479 kts 30°
2026-04-25 13:46 50.22783 3.15016 25350 ft 479 kts 26°
2026-04-25 13:47 50.25766 3.17337 25624 ft 479 kts 21°
2026-04-25 13:47 50.28827 3.19434 25872 ft 481 kts 20°
2026-04-25 13:47 50.31894 3.21543 26093 ft 483 kts 21°
2026-04-25 13:47 50.34950 3.23676 26319 ft 484 kts 21°
2026-04-25 13:48 50.38042 3.25842 26600 ft 484 kts 21°
2026-04-25 13:48 50.41108 3.28001 26916 ft 483 kts 21°
2026-04-25 13:48 50.44133 3.30310 27195 ft 484 kts 24°
2026-04-25 13:48 50.47119 3.32744 27473 ft 483 kts 24°
2026-04-25 13:49 50.50126 3.35116 27790 ft 482 kts 23°
2026-04-25 13:49 50.53135 3.37434 28061 ft 481 kts 21°
2026-04-25 13:49 50.56202 3.39539 28194 ft 482 kts 19°
2026-04-25 13:50 50.62361 3.43683 28206 ft 480 kts 19°
2026-04-25 13:50 50.68493 3.47843 28210 ft 480 kts 20°
2026-04-25 13:51 50.74604 3.52070 28213 ft 480 kts 20°
2026-04-25 13:51 50.80722 3.56324 28216 ft 480 kts 20°
2026-04-25 13:52 50.86829 3.60579 28220 ft 479 kts 20°
2026-04-25 13:52 50.92930 3.64852 28223 ft 480 kts 21°
2026-04-25 13:53 50.99009 3.69201 28224 ft 479 kts 21°
2026-04-25 13:53 51.05077 3.73586 28224 ft 479 kts 21°
2026-04-25 13:54 51.11138 3.77989 28218 ft 479 kts 21°
2026-04-25 13:54 51.17192 3.82399 28217 ft 479 kts 21°
2026-04-25 13:55 51.22222 3.86064 28219 ft 478 kts 21°
2026-04-25 13:55 51.28282 3.90461 28223 ft 478 kts 21°
2026-04-25 13:56 51.34324 3.94879 28220 ft 478 kts 21°
2026-04-25 13:56 51.40350 3.99312 28217 ft 477 kts 21°
2026-04-25 13:57 51.46376 4.03751 28212 ft 475 kts 21°
2026-04-25 13:57 51.52384 4.08171 28210 ft 475 kts 21°
2026-04-25 13:58 51.58382 4.12627 28212 ft 475 kts 21°
2026-04-25 13:58 51.64371 4.17105 28216 ft 475 kts 21°
2026-04-25 13:59 51.70366 4.21597 28222 ft 475 kts 21°
2026-04-25 13:59 51.76362 4.26095 28227 ft 475 kts 21°
2026-04-25 14:00 51.81346 4.29830 28229 ft 475 kts 21°
2026-04-25 14:00 51.88362 4.35113 28229 ft 475 kts 21°
2026-04-25 14:01 51.94351 4.39635 28230 ft 475 kts 21°
2026-04-25 14:01 52.00358 4.44101 28230 ft 475 kts 21°
2026-04-25 14:02 52.06340 4.48632 28214 ft 474 kts 21°
2026-04-25 14:02 52.12243 4.53134 28203 ft 475 kts 21°
2026-04-25 14:03 52.18218 4.57702 28202 ft 474 kts 21°
2026-04-25 14:03 52.24198 4.62282 28201 ft 474 kts 21°
2026-04-25 14:04 52.30170 4.66840 28201 ft 474 kts 21°
2026-04-25 14:04 52.36098 4.71430 28201 ft 474 kts 21°
2026-04-25 14:05 52.42051 4.76064 28201 ft 474 kts 21°
2026-04-25 14:05 52.48019 4.80724 28201 ft 474 kts 21°
2026-04-25 14:06 52.53679 4.86369 28200 ft 482 kts 34°
2026-04-25 14:06 52.58402 4.94292 28202 ft 489 kts 46°
2026-04-25 14:07 52.62569 5.03171 28201 ft 490 kts 48°
2026-04-25 14:07 52.66758 5.12000 28201 ft 490 kts 47°
2026-04-25 14:08 52.70966 5.20873 28201 ft 490 kts 48°
2026-04-25 14:08 52.75158 5.29747 28201 ft 490 kts 47°
2026-04-25 14:09 52.79455 5.38453 28201 ft 490 kts 47°
2026-04-25 14:09 52.82949 5.45950 28201 ft 491 kts 48°
2026-04-25 14:10 52.87770 5.56371 28201 ft 491 kts 48°
2026-04-25 14:10 52.91932 5.65298 28200 ft 489 kts 47°
2026-04-25 14:11 52.96137 5.74189 28201 ft 490 kts 48°
2026-04-25 14:11 53.00279 5.83169 28201 ft 490 kts 48°
2026-04-25 14:12 53.04409 5.92181 28201 ft 491 kts 48°
2026-04-25 14:12 53.08548 6.01226 28194 ft 490 kts 48°
2026-04-25 14:13 53.12661 6.10213 28189 ft 490 kts 47°
2026-04-25 14:13 53.16826 6.19243 28183 ft 490 kts 47°
2026-04-25 14:14 53.20977 6.28251 28179 ft 490 kts 47°
2026-04-25 14:14 53.25083 6.37319 28180 ft 489 kts 48°
2026-04-25 14:15 53.29185 6.46418 28179 ft 490 kts 48°
2026-04-25 14:15 53.33292 6.55504 28178 ft 489 kts 46°
2026-04-25 14:16 53.37900 6.63729 28175 ft 481 kts 37°
2026-04-25 14:16 53.42866 6.71230 28173 ft 481 kts 37°
2026-04-25 14:17 53.47807 6.78829 28172 ft 481 kts 37°
2026-04-25 14:17 53.52732 6.86448 28168 ft 481 kts 37°
2026-04-25 14:18 53.57468 6.94457 28171 ft 487 kts 44°
2026-04-25 14:18 53.61702 7.03392 28170 ft 489 kts 47°
2026-04-25 14:19 53.65876 7.12452 28167 ft 489 kts 47°
2026-04-25 14:19 53.70051 7.21507 28166 ft 490 kts 47°
2026-04-25 14:20 53.74237 7.30600 28154 ft 490 kts 46°
2026-04-25 14:20 53.78419 7.39674 28149 ft 489 kts 46°
2026-04-25 14:21 53.82651 7.48671 28147 ft 489 kts 46°
2026-04-25 14:21 53.86853 7.57742 28145 ft 489 kts 46°
2026-04-25 14:22 53.91041 7.66858 28144 ft 489 kts 46°
2026-04-25 14:22 53.95216 7.75996 28131 ft 490 kts 46°
2026-04-25 14:23 53.99377 7.85142 28124 ft 490 kts 46°
2026-04-25 14:23 54.03538 7.94324 28120 ft 490 kts 47°
2026-04-25 14:24 54.07687 8.03514 28116 ft 490 kts 47°
2026-04-25 14:24 54.11835 8.12736 28113 ft 490 kts 47°
2026-04-25 14:25 54.15274 8.20407 28110 ft 490 kts 47°
2026-04-25 14:25 54.20111 8.31239 28107 ft 490 kts 47°
2026-04-25 14:26 54.24243 8.40529 28097 ft 492 kts 47°
2026-04-25 14:26 54.28374 8.49853 28088 ft 492 kts 46°
2026-04-25 14:27 54.32506 8.59210 28082 ft 492 kts 46°
2026-04-25 14:27 54.36634 8.68597 28076 ft 494 kts 46°
2026-04-25 14:28 54.40758 8.78009 28066 ft 494 kts 46°
2026-04-25 14:28 54.44879 8.87452 28060 ft 495 kts 46°
2026-04-25 14:29 54.49009 8.96948 28053 ft 496 kts 46°
2026-04-25 14:29 54.53129 9.06461 28043 ft 496 kts 46°
2026-04-25 14:30 54.57248 9.16003 28038 ft 496 kts 46°
2026-04-25 14:30 54.63426 9.30385 28030 ft 497 kts 46°
2026-04-25 14:31 54.67571 9.39934 28021 ft 498 kts 46°
2026-04-25 14:31 54.71665 9.49582 28009 ft 498 kts 47°
2026-04-25 14:32 54.75740 9.59252 28001 ft 499 kts 47°
2026-04-25 14:32 54.77785 9.64115 27998 ft 500 kts 47°
2026-04-25 14:32 54.79831 9.68981 27999 ft 499 kts 47°
2026-04-25 14:33 54.81901 9.73915 27998 ft 500 kts 47°
2026-04-25 14:33 54.83789 9.78922 27995 ft 505 kts 52°
2026-04-25 14:33 54.85554 9.84307 27994 ft 508 kts 54°
2026-04-25 14:33 54.87267 9.89564 27993 ft 507 kts 53°
2026-04-25 14:34 54.89076 9.94814 27993 ft 505 kts 50°
2026-04-25 14:34 54.91086 9.99778 27992 ft 500 kts 45°
2026-04-25 14:34 54.93341 10.04435 27992 ft 496 kts 40°
2026-04-25 14:34 54.95696 10.08670 27991 ft 492 kts 37°
2026-04-25 14:35 54.98167 10.12880 27988 ft 489 kts 36°
2026-04-25 14:35 55.00577 10.17040 27984 ft 488 kts 37°
2026-04-25 14:35 55.02970 10.21220 27979 ft 488 kts 37°
2026-04-25 14:35 55.04558 10.24008 27870 ft 490 kts 37°
2026-04-25 14:36 55.07774 10.29529 26864 ft 489 kts 36°
2026-04-25 14:36 55.09405 10.32354 26256 ft 490 kts 37°
2026-04-25 14:36 55.11801 10.36573 25488 ft 488 kts 37°
2026-04-25 14:36 55.14176 10.40789 24817 ft 484 kts 37°
2026-04-25 14:37 55.17284 10.46331 23930 ft 479 kts 37°
2026-04-25 14:37 55.18853 10.49135 23478 ft 476 kts 37°
2026-04-25 14:37 55.21159 10.53260 22811 ft 472 kts 37°
2026-04-25 14:37 55.23442 10.57349 22145 ft 468 kts 37°
2026-04-25 14:38 55.25612 10.61637 21472 ft 473 kts 44°
2026-04-25 14:38 55.27433 10.66473 20789 ft 478 kts 53°
2026-04-25 14:38 55.28857 10.71714 20092 ft 484 kts 61°
2026-04-25 14:38 55.29936 10.77393 19419 ft 486 kts 68°
2026-04-25 14:39 55.30777 10.83115 18742 ft 483 kts 69°
2026-04-25 14:39 55.31681 10.88758 18072 ft 478 kts 67°
2026-04-25 14:39 55.32636 10.94333 17397 ft 474 kts 67°
2026-04-25 14:39 55.33570 10.99868 16728 ft 471 kts 68°
2026-04-25 14:40 55.34480 11.05379 16072 ft 468 kts 68°
2026-04-25 14:40 55.35379 11.10764 15483 ft 462 kts 67°
2026-04-25 14:40 55.36332 11.16198 14839 ft 458 kts 67°
2026-04-25 14:40 55.37226 11.21535 14183 ft 454 kts 68°
2026-04-25 14:41 55.38100 11.26867 13605 ft 450 kts 69°
2026-04-25 14:41 55.38954 11.32139 12985 ft 446 kts 69°
2026-04-25 14:41 55.39795 11.37350 12520 ft 438 kts 69°
2026-04-25 14:41 55.40611 11.42421 12357 ft 423 kts 69°
2026-04-25 14:42 55.41399 11.47320 12237 ft 409 kts 69°
2026-04-25 14:42 55.41904 11.50474 12160 ft 400 kts 69°
2026-04-25 14:42 55.42874 11.56533 12009 ft 367 kts 68°
2026-04-25 14:42 55.43366 11.60824 11898 ft 351 kts 81°
2026-04-25 14:43 55.43252 11.65019 11731 ft 340 kts 96°
2026-04-25 14:43 55.42733 11.69089 11484 ft 341 kts 103°
2026-04-25 14:43 55.42003 11.73084 11327 ft 345 kts 108°
2026-04-25 14:43 55.41144 11.77050 11122 ft 348 kts 111°
2026-04-25 14:44 55.40255 11.81012 10869 ft 348 kts 111°
2026-04-25 14:44 55.39387 11.84966 10613 ft 344 kts 110°
2026-04-25 14:44 55.38544 11.88844 10354 ft 334 kts 110°
2026-04-25 14:44 55.37729 11.92611 10110 ft 326 kts 110°
2026-04-25 14:45 55.37198 11.95072 9951 ft 324 kts 110°
2026-04-25 14:45 55.36129 12.00030 9632 ft 323 kts 109°
2026-04-25 14:45 55.35336 12.03725 9392 ft 322 kts 110°
2026-04-25 14:45 55.34635 12.07441 9151 ft 319 kts 101°
2026-04-25 14:46 55.34337 12.11261 8918 ft 313 kts 90°
2026-04-25 14:46 55.34356 12.15070 8679 ft 310 kts 82°
2026-04-25 14:46 55.34587 12.18838 8452 ft 311 kts 78°
2026-04-25 14:46 55.34869 12.22627 8216 ft 313 kts 78°
2026-04-25 14:47 55.35117 12.26418 7976 ft 311 kts 79°
2026-04-25 14:47 55.35263 12.28914 7819 ft 309 kts 79°
2026-04-25 14:47 55.35541 12.33915 7514 ft 306 kts 79°
2026-04-25 14:47 55.35738 12.37621 7284 ft 304 kts 80°
2026-04-25 14:48 55.35931 12.41308 7057 ft 302 kts 80°
2026-04-25 14:48 55.36121 12.44980 6825 ft 301 kts 80°
2026-04-25 14:48 55.36309 12.48624 6597 ft 297 kts 79°
2026-04-25 14:48 55.36495 12.52216 6363 ft 294 kts 79°
2026-04-25 14:49 55.36679 12.55776 6122 ft 291 kts 79°
2026-04-25 14:49 55.36901 12.59290 5868 ft 286 kts 75°
2026-04-25 14:49 55.37336 12.62665 5603 ft 281 kts 69°
2026-04-25 14:49 55.37882 12.65943 5344 ft 278 kts 67°
2026-04-25 14:50 55.38417 12.69189 5134 ft 274 kts 68°
2026-04-25 14:50 55.38922 12.72374 4969 ft 268 kts 68°
2026-04-25 14:50 55.39409 12.75518 4804 ft 265 kts 69°
2026-04-25 14:50 55.39887 12.78627 4640 ft 262 kts 69°
2026-04-25 14:51 55.40360 12.81726 4478 ft 262 kts 69°
2026-04-25 14:51 55.40835 12.84821 4314 ft 262 kts 69°
2026-04-25 14:51 55.41368 12.87873 4145 ft 258 kts 61°
2026-04-25 14:51 55.42255 12.90569 3983 ft 252 kts 44°
2026-04-25 14:52 55.43500 12.92619 3821 ft 240 kts 27°
2026-04-25 14:52 55.44948 12.93799 3635 ft 220 kts 359°
2026-04-25 14:52 55.46403 12.93576 3493 ft 207 kts 338°
2026-04-25 14:52 55.47309 12.92998 3388 ft 203 kts 331°
2026-04-25 14:53 55.49049 12.91771 3173 ft 204 kts 332°
2026-04-25 14:53 55.50366 12.90839 3011 ft 203 kts 331°
2026-04-25 14:53 55.51672 12.89914 2981 ft 202 kts 331°
2026-04-25 14:53 55.52943 12.88904 2918 ft 200 kts 320°
2026-04-25 14:54 55.53883 12.87156 2702 ft 197 kts 301°
2026-04-25 14:54 55.54602 12.85106 2443 ft 196 kts 299°
2026-04-25 14:54 55.55322 12.83077 2183 ft 194 kts 301°
2026-04-25 14:54 55.56054 12.81078 1928 ft 192 kts 301°
2026-04-25 14:55 55.56777 12.79122 1683 ft 189 kts 301°
2026-04-25 14:55 55.57479 12.77230 1458 ft 178 kts 301°
2026-04-25 14:55 55.58137 12.75456 1195 ft 168 kts 301°
2026-04-25 14:55 55.58750 12.73801 997 ft 154 kts 301°
2026-04-25 14:56 55.59315 12.72280 784 ft 142 kts 301°
2026-04-25 14:56 55.59828 12.70896 585 ft 128 kts 300°
2026-04-25 14:56 55.60288 12.69656 443 ft 117 kts 301°
2026-04-25 14:56 55.60727 12.68471 297 ft 111 kts 302°
2026-04-25 14:57 55.61145 12.67338 175 ft 110 kts 301°
2026-04-25 14:57 55.61584 12.66188 35 ft 110 kts 295°
2026-04-25 14:57 55.61916 12.65265 25 ft 63 kts 300°
2026-04-25 14:57 55.62108 12.64737 25 ft 55 kts 301°
2026-04-25 14:58 55.62332 12.64121 25 ft 44 kts 304°
2026-04-25 14:58 55.62440 12.63856 25 ft 23 kts 320°
2026-04-25 14:58 55.62549 12.63770 25 ft 9 kts 353°
2026-04-25 14:58 55.62579 12.63767 25 ft 3 kts
2026-04-25 14:59 55.62584 12.63769 25 ft 0 kts
2026-04-25 14:59 55.62609 12.63779 25 ft 12 kts 16°
2026-04-25 14:59 55.62685 12.63851 25 ft 6 kts 33°
2026-04-25 14:59 55.62703 12.63911 25 ft 6 kts 104°
2026-04-25 15:00 55.62678 12.63996 25 ft 9 kts 122°
2026-04-25 15:00 55.62634 12.64117 25 ft 15 kts 124°
2026-04-25 15:00 55.62567 12.64294 25 ft 17 kts 124°
2026-04-25 15:00 55.62504 12.64461 25 ft 16 kts 120°
2026-04-25 15:01 55.62446 12.64620 25 ft 15 kts 124°
2026-04-25 15:01 55.62399 12.64769 25 ft 12 kts 121°
2026-04-25 15:01 55.62352 12.64890 25 ft 12 kts 128°
2026-04-25 15:01 55.62288 12.65032 25 ft 15 kts 123°
2026-04-25 15:02 55.62301 12.65184 25 ft 13 kts 30°
2026-04-25 15:02 55.62381 12.65201 25 ft 8 kts 359°
2026-04-25 15:02 55.62434 12.65231 25 ft 8 kts 57°
2026-04-25 15:02 55.62443 12.65325 25 ft 8 kts 91°
2026-04-25 15:03 55.62453 12.65413 25 ft 7 kts 49°
2026-04-25 15:03 55.62488 12.65450 25 ft 5 kts 25°
2026-04-25 15:03 55.62513 12.65470 25 ft 3 kts 25°
2026-04-25 15:03 55.62516 12.65472 25 ft 0 kts 25°